Location: Krakow
(50.0830°N, 19.9170°E)
Time: 20:24:40
(UTC+01:00)

Altair - Pass Details

Date: 02 December 2023
Orbit: 1501 x 1682 km, 47.2° (Epoch: 03 March)

Event Time Altitude Azimuth Distance (km) Brightness Sun altitude
Rises 07:20:21 0° 197° (SSW) 4,823 10.3 -0.6°
Reaches altitude 10° 07:24:10 10° 186° (S) 3,812 10.0 -0.1°
Maximum altitude 07:31:36 26° 135° (SE) 2,714 10.2 0.9°
Drops below altitude 10° 07:38:50 10° 84° (E) 3,715 10.3 1.8°
Sets 07:42:28 0° 72° (ENE) 4,678 10.5 2.3°
